Find OV1-21

NORAD ID: 5397 Int'l Des: 1971-067 Owner: STP Country: US operational
LEOCIRCULARPOLAR

当前视图

正在加载3D地球...

About OV1-21

OV1-21 (NORAD 5397) is a satellite by STP of US. It operates in LEO, CIRCULAR, POLAR orbit

关于 OV1-21

正在加载描述...

即将过境

Passes for default location (London). Set your location on the main map for personalized predictions.

高度历史

Loading altitude history...

两行轨道根数

1 5397U 71067B 26159.82682998 .00000109 00000-0 43350-4 0 9999
2 5397 87.6269 75.5552 0080354 207.7707 151.9181 14.18231550833261
Epoch: Jun 8, 2026 • Age: 9 hours

当前状态

高度 893.4 km
速度 7.38 km/s
星下点 42.67°N, 112.37°E
类型 other

Most Searched